Preview of NWS' New Version of Forecast
This preview is not operational and should not be used for support decisions.

Regional Weather Roundup (RWR)

Issued by National Weather Service (NWS)

                            
000
ASUS46 KSEW 180910
RWRWA 

WASHINGTON REGIONAL WEATHER ROUNDUP
NATIONAL WEATHER SERVICE SEATTLE WA
200 AM PDT THU APR 18 2019

NOTE:"FAIR" INDICATES FEW OR NO CLOUDS BELOW 12,000 FEET WITH NO 
SIGNIFICANT WEATHER AND/OR OBSTRUCTIONS TO VISIBILITY.

WAZ507-509-555>559-181000-
SEATTLE, TACOMA, EVERETT, AND VICINITY
  
CITY           SKY/WX    TMP DP  RH WIND       PRES   REMARKS
EVERETT        LGT RAIN  53  47  79 VRB5      30.29F                  
BOEING FIELD   CLOUDY    55  47  74 SE7       30.29F                  
RENTON         CLOUDY    55  48  77 S5        30.29F                  
SEATAC AIRPORT CLOUDY    54  47  77 SE7       30.29F                  
JBLM-MCCHORD   CLOUDY    53  52  99 CALM        N/A                   
PUYALLUP       CLOUDY    52  50  93 CALM      30.29F                  
BREMERTON      LGT RAIN  50  48  93 S5        30.29F                  
JBLM-FT LEWIS  NOT AVBL                                               
TACOMA NARROWS LGT RAIN  53  48  83 SE3       30.29F                  
$$
 
WAZ001-503-506-510-514-515-181000-
NORTH INTERIOR
  
CITY           SKY/WX    TMP DP  RH WIND       PRES   REMARKS
BELLINGHAM     LGT RAIN  52  49  89 CALM      30.27F                  
FRIDAY HARBOR  CLOUDY    50  47  89 SE5       30.27F                  
EASTSOUND      LGT RAIN  52  50  93 CALM      30.26F                  
PORT ANGELES   CLOUDY    50  48  93 CALM      30.26F                  
EDIZ HOOK      CLOUDY    49  47  95 CALM      30.26F                  
PORT TOWNSEND  CLOUDY    50  50 100 CALM      30.26F                  
NAS WHIDBEY    NOT AVBL                                               
ARLINGTON      LGT RAIN  54  47  77 E7        30.29F                  
BURLINGTON     CLOUDY    54  48  82 E6        30.28F                  
$$
 
WAZ020-022-039-040-504-511-512-181000-
SOUTHWEST INTERIOR
  
CITY           SKY/WX    TMP DP  RH WIND       PRES   REMARKS
SHELTON        CLOUDY    52  48  86 S3        30.27F                  
OLYMPIA        CLOUDY    51  48  89 W3        30.29F                  
CHEHALIS       MOCLDY    50  48  93 CALM      30.30F                  
KELSO          PTCLDY    50  48  93 CALM      30.31F                  
VANCOUVER      PTCLDY    47  43  86 CALM      30.31S                  
SCAPPOOSE, OR  PTCLDY    49  45  86 W3        30.30F                  
PORTLAND, OR   PTCLDY    50  44  80 CALM      30.31S                  
$$
 
WAZ021-516-517-181000-
WASHINGTON COAST
  
CITY           SKY/WX    TMP DP  RH WIND       PRES   REMARKS
FORKS          LGT RAIN  51  49  92 S5        30.25F                  
HOQUIAM        CLOUDY    51  51 100 E5        30.28F                  
ASTORIA, OR    CLOUDY    49  46  90 CALM      30.28F                  
$$
 
WAZ019-023-024-040-567>569-181000-
CASCADE MOUNTAINS AND COLUMBIA GORGE
  
CITY           SKY/WX    TMP DP  RH WIND       PRES   REMARKS
STAMPEDE PASS  NOT AVBL                                               
TROUTDALE, OR  CLEAR     49  45  86 E3        30.31S                  
HOOD RIVER, OR MOSUNNY   46  43  87 MISG      30.30F                  
THE DALLES, OR PTCLDY    50  43  77 E5        30.29S                  
$$

WAZ026-027-041>044-520-521-181000-
EAST SLOPES
  
CITY           SKY/WX    TMP DP  RH WIND       PRES   REMARKS
OMAK           LGT RAIN  54  39  57 S9        30.19F                  
WENATCHEE      CLOUDY    53  35  50 NW6       30.24S                  
ELLENSBURG     MOCLDY    50  38  63 NW13      30.25F                  
YAKIMA         MOCLDY    48  38  68 W6        30.26F                  
SUNNYSIDE ARPT MOSUNNY   45  42  88 CALM      30.26S                  
YAKIMA TC      FAIR      47  38  71 E7        30.23F                  
$$

WAZ028-034-035-181000-
COLUMBIA BASIN
  
CITY           SKY/WX    TMP DP  RH WIND       PRES   REMARKS
EPHRATA        PTCLDY    46  34  62 CALM      30.22F                  
MOSES LAKE     PTCLDY    47  36  65 S6        30.24S                  
PASCO          CLEAR     54  40  59 S7        30.26S                  
RICHLAND ARPT  SUNNY     47  42  83 NE3       30.25                   
HERMISTON, OR  CLEAR     50  39  66 S7        30.26F                  
$$

WAZ036>038-181000-
NORTHEAST WASHINGTON
  
CITY           SKY/WX    TMP DP  RH WIND       PRES   REMARKS
SPOKANE GEIGER PTCLDY    46  37  71 S8        30.25F                  
SPOKANE FELTS  CLEAR     46  38  73 N6        30.26F                  
FAIRCHILD AFB  PTCLDY    44  42  96 S6        30.24F                  
COEURDALENE,ID CLEAR     46  39  76 SE12      30.27S                  
DEER PARK      PTCLDY    44  35  70 SE7       30.25F                  
$$

WAZ029>033-181000-
SOUTHEAST WASHINGTON
  
CITY           SKY/WX    TMP DP  RH WIND       PRES   REMARKS
PULLMAN        CLEAR     44  38  79 CALM      30.31S                  
LEWISTON, ID   CLEAR     47  37  68 CALM      30.30S                  
WALLA WALLA    CLEAR     56  38  50 S9        30.26F                  
PENDLETON, OR  CLEAR     47  40  76 SE9       30.27F                  
$$